Regional Weather Roundup
Issued by NWS

Home | Current Version | Previous Version | Text Only | Print | Product List | Glossary On
Versions: 1 2 3 4 5 6 7 8 9 10 11 12 13 14 15 16 17 18 19 20 21 22 23 24 25 26 27 28 29 30 31 32 33 34 35 36 37 38 39 40 41 42 43 44 45 46 47 48 49 50
000
ASUS43 KFSD 131402
RWRSD

WEATHER ROUNDUP FOR SOUTH DAKOTA
NATIONAL WEATHER SERVICE SIOUX FALLS SD
800 AM CST SAT FEB 13 2016

NOTE: "FAIR" INDICATES FEW OR NO CLOUDS BELOW 12,000 FEET WITH NO
SIGNIFICANT WEATHER AND/OR OBSTRUCTIONS TO VISIBILITY.


SDZ001>005-009-010-012>017-131500-
NORTHWEST AND NORTH CENTRAL SOUTH DAKOTA

CITY           SKY/WX    TMP DP  RH WIND       PRES   REMARKS
BUFFALO          N/A     19  17  92 SE13      29.94F WCI   6
FAITH            N/A     14  10  84 SE20      30.09F WCI  -3
MOBRIDGE       CLOUDY    10   1  67 SE21G26   30.22F WCI  -9
$$

SDZ012>016-024>037-041>051-057-063-072>074-131500-
SOUTHWEST AND SOUTH CENTRAL SOUTH DAKOTA

CITY           SKY/WX    TMP DP  RH WIND       PRES   REMARKS
RAPID CTY ARPT CLOUDY    30  28  92 SE8       30.01F WCI  22
PIERRE         CLOUDY    14   9  80 SE20      30.27F WCI  -3
CUSTER         CLOUDY    28  25  88 VRB5      29.97F WCI  23
ELLSWORTH AFB  CLOUDY    31  30  97 S12       29.99F WCI  22
PHILIP         CLOUDY    25  21  85 E15       30.14F WCI  13
PINE RIDGE     CLOUDY    33  29  85 S18G28    30.05F WCI  22
WINNER         CLOUDY    20  13  74 S23G33    30.26F WCI   3
$$

SDZ004>011-016>023-039-040-131500-
NORTHEAST SOUTH DAKOTA

CITY           SKY/WX    TMP DP  RH WIND       PRES   REMARKS
ABERDEEN       CLOUDY     7  -6  55 SE13      30.45F WCI  -9
WATERTOWN      CLOUDY     0 -10  63 SE12      30.45F WCI -17
BROOKINGS      CLOUDY    -1  -8  72 SE12      30.49S WCI -18
SISSETON         N/A     -2  -8  76 S12       30.53F WCI -20
$$

SDZ017-020-022-023-036>040-048>070-131500-
SOUTHEAST SOUTH DAKOTA

CITY           SKY/WX    TMP DP  RH WIND       PRES   REMARKS
SIOUX FALLS    CLOUDY     2  -7  66 SE12      30.54R WCI -15
HURON          CLOUDY     7  -2  66 SE18      30.44F WCI -12
MITCHELL       CLOUDY     8   0  69 SE16      30.49S WCI -10
YANKTON        CLOUDY     7  -2  66 SE13      30.51F WCI  -9
$$

ABBREVIATIONS USED IN REMARKS
   TC - TEMPERATURE IN CELSIUS
  WCI - WIND CHILL INDEX
   HX - HEAT INDEX
  VSB - VISIBILITY




USA.gov is the U.S. government's official web portal to all federal, state and local government web resources and services.